Zurück zum Katalog

STARLINK-34888

AktivKommunikationVLEO
NORAD 65471·PAYLOAD·🇺🇸 United States

Gestartet Sep 3, 2025 von Cape Canaveral Space Force Station

Loading…

Nächste Überflüge (nächste 24 Stunden)

TLE

AktuellSource: CelesTrak SupGP

Epoche: Sep 14, 2026, 23:07 UTC

1 65471C 25195P   26257.96368056  .00047861  00000+0  14151-2 0  2576
2 65471  53.1573  95.7435 0001166  85.6330  93.6855 15.34344573    17

Verfolge STARLINK-34888 in Echtzeit mit AllMySat

Download on the App Store